TimeEDT,TemperatureF,Dew PointF,Humidity,Sea Level PressureIn,VisibilityMPH,Wind Direction,Wind SpeedMPH,Gust SpeedMPH,PrecipitationIn,Events,Conditions,WindDirDegrees,DateUTC
12:54 AM,64.9,55.9,73,30.17,10.0,Calm,Calm,-,N/A,,Partly Cloudy,0,2013-09-28 04:54:00
1:54 AM,66.0,55.9,70,30.17,10.0,Calm,Calm,-,N/A,,Overcast,0,2013-09-28 05:54:00
2:54 AM,63.0,55.0,75,30.17,10.0,NE,3.5,-,N/A,,Mostly Cloudy,40,2013-09-28 06:54:00
3:54 AM,62.1,55.0,78,30.17,10.0,NNE,4.6,-,N/A,,Clear,30,2013-09-28 07:54:00
4:54 AM,63.0,55.0,75,30.17,10.0,NE,5.8,-,N/A,,Clear,40,2013-09-28 08:54:00
5:54 AM,62.1,54.0,75,30.18,10.0,NE,5.8,-,N/A,,Clear,40,2013-09-28 09:54:00
6:54 AM,61.0,54.0,78,30.21,10.0,NE,4.6,-,N/A,,Clear,40,2013-09-28 10:54:00
7:54 AM,61.0,54.0,78,30.22,10.0,ENE,3.5,-,N/A,,Clear,60,2013-09-28 11:54:00
8:54 AM,64.0,54.0,70,30.24,10.0,ENE,4.6,-,N/A,,Clear,70,2013-09-28 12:54:00
9:54 AM,66.0,54.0,65,30.25,10.0,ENE,5.8,-,N/A,,Clear,70,2013-09-28 13:54:00
10:54 AM,70.0,53.1,55,30.25,10.0,NE,8.1,-,N/A,,Clear,50,2013-09-28 14:54:00
11:54 AM,71.1,52.0,51,30.24,10.0,NE,8.1,-,N/A,,Partly Cloudy,50,2013-09-28 15:54:00
12:54 PM,73.0,51.1,46,30.23,10.0,East,9.2,-,N/A,,Partly Cloudy,80,2013-09-28 16:54:00
1:54 PM,75.0,52.0,44,30.20,10.0,ENE,8.1,-,N/A,,Partly Cloudy,60,2013-09-28 17:54:00
2:54 PM,73.9,53.1,48,30.17,10.0,Calm,Calm,-,N/A,,Mostly Cloudy,0,2013-09-28 18:54:00
3:54 PM,73.9,52.0,46,30.17,10.0,ESE,5.8,-,N/A,,Mostly Cloudy,110,2013-09-28 19:54:00
4:54 PM,75.0,53.1,46,30.16,10.0,East,8.1,-,N/A,,Partly Cloudy,90,2013-09-28 20:54:00
5:54 PM,73.0,53.1,49,30.15,10.0,East,5.8,-,N/A,,Partly Cloudy,80,2013-09-28 21:54:00
6:54 PM,71.1,53.1,53,30.15,10.0,Calm,Calm,-,N/A,,Clear,0,2013-09-28 22:54:00
7:54 PM,66.9,55.0,66,30.15,10.0,Calm,Calm,-,N/A,,Clear,0,2013-09-28 23:54:00
8:54 PM,66.0,55.0,68,30.17,10.0,Calm,Calm,-,N/A,,Overcast,0,2013-09-29 00:54:00
9:54 PM,66.9,52.0,59,30.18,10.0,East,5.8,-,N/A,,Overcast,90,2013-09-29 01:54:00
10:54 PM,66.0,53.1,63,30.17,10.0,NE,5.8,-,N/A,,Overcast,50,2013-09-29 02:54:00
11:54 PM,66.0,53.1,63,30.18,10.0,ENE,5.8,-,N/A,,Overcast,70,2013-09-29 03:54:00